Peotone Weather
Station Historical Data
 
Daily Summary for July 26, 2017 Units:  English    Metric   Both
« Previous Day
Next Day »
Daily Weekly Monthly Yearly Custom
  Current: High: Low: Average:
Temperature: 75.7 °F 84.6 °F 61.3 °F 72 °F
Dew Point: 72.6 °F 75.1 °F 59.3 °F 67 °F
Humidity: 90% 94% 71% 85%
Wind Speed: 3.4mph 9.2mph 0.0mph 2.1mph
Wind Gust: 3.4mph 11.5mph - -
WindENE - - SE
Pressure: 29.94 in 30.12 in 29.92 in -
Precipitation: 0.00 in      
Historical Graphs
 
 
Tabular Data for July 26, 2017
Time Temperature Dew Point Pressure Wind Wind Speed Wind Gust Humidity Rainfall Rate (Hourly) solar Conditions
00:00 64.0 °F 60.4 °F 30.11 in ESE 1.1 mph 2.3 mph 88% 0.00 in 0.00 W/m2
00:01 64.1 °F 60.5 °F 30.11 in ESE 1.1 mph 2.3 mph 88% 0.00 in 0.00 W/m2
00:05 63.8 °F 60.2 °F 30.11 in Calm   1.1 mph 88% 0.00 in 0.00 W/m2
00:06 63.8 °F 60.2 °F 30.11 in Calm   1.1 mph 88% 0.00 in 0.00 W/m2
00:10 63.4 °F 60.1 °F 30.11 in Calm   4.6 mph 89% 0.00 in 0.00 W/m2
00:11 63.4 °F 60.1 °F 30.11 in Calm   4.6 mph 89% 0.00 in 0.00 W/m2
00:15 63.4 °F 60.1 °F 30.10 in Calm   1.1 mph 89% 0.00 in 0.00 W/m2
00:16 63.4 °F 60.1 °F 30.10 in Calm   1.1 mph 89% 0.00 in 0.00 W/m2
00:20 63.2 °F 59.9 °F 30.10 in Calm   1.1 mph 89% 0.00 in 0.00 W/m2
00:21 63.2 °F 59.9 °F 30.10 in Calm   1.1 mph 89% 0.00 in 0.00 W/m2
00:25 63.1 °F 59.8 °F 30.10 in SE 3.5 mph 3.5 mph 89% 0.00 in 0.00 W/m2
00:26 63.1 °F 59.8 °F 30.10 in SE 3.4 mph 3.4 mph 89% 0.00 in 0.00 W/m2
00:30 62.9 °F 59.9 °F 30.09 in SE 2.3 mph 3.5 mph 90% 0.00 in 0.00 W/m2
00:31 62.9 °F 59.9 °F 30.09 in SE 2.3 mph 3.4 mph 90% 0.00 in 0.00 W/m2
00:35 62.8 °F 59.8 °F 30.10 in Calm   2.3 mph 90% 0.00 in 0.00 W/m2
00:36 62.8 °F 59.8 °F 30.10 in Calm   2.3 mph 90% 0.00 in 0.00 W/m2
00:40 62.7 °F 59.7 °F 30.10 in Calm   3.5 mph 90% 0.00 in 0.00 W/m2
00:41 62.7 °F 59.7 °F 30.10 in Calm     90% 0.00 in 0.00 W/m2
00:45 63.0 °F 60.0 °F 30.10 in SE 1.1 mph 3.5 mph 90% 0.00 in 0.00 W/m2
00:46 63.0 °F 60.0 °F 30.10 in Calm   1.1 mph 90% 0.00 in 0.00 W/m2
00:49 63.1 °F 60.1 °F 30.10 in SE 1.1 mph 2.3 mph 90% 0.00 in 0.00 W/m2
00:50 63.2 °F 60.2 °F 30.10 in Calm   5.8 mph 90% 0.00 in 0.00 W/m2
00:54 63.2 °F 60.2 °F 30.10 in Calm   3.4 mph 90% 0.00 in 0.00 W/m2
00:55 63.3 °F 60.3 °F 30.10 in ESE 1.1 mph 3.5 mph 90% 0.00 in 0.00 W/m2
00:59 63.4 °F 60.4 °F 30.10 in ESE 2.3 mph 4.6 mph 90% 0.00 in 0.00 W/m2
01:00 63.3 °F 60.3 °F 30.10 in Calm   4.6 mph 90% 0.00 in 0.00 W/m2
01:04 63.2 °F 60.2 °F 30.10 in ESE 1.1 mph 3.4 mph 90% 0.00 in 0.00 W/m2
01:05 63.2 °F 60.2 °F 30.10 in Calm   3.5 mph 90% 0.00 in 0.00 W/m2
01:09 63.2 °F 60.2 °F 30.10 in Calm   3.4 mph 90% 0.00 in 0.00 W/m2
01:10 63.2 °F 60.2 °F 30.10 in Calm   3.5 mph 90% 0.00 in 0.00 W/m2
01:14 63.0 °F 60.0 °F 30.10 in Calm   1.1 mph 90% 0.00 in 0.00 W/m2
01:15 62.9 °F 59.9 °F 30.10 in Calm   2.3 mph 90% 0.00 in 0.00 W/m2
01:19 62.9 °F 59.9 °F 30.10 in SE 1.1 mph 2.3 mph 90% 0.00 in 0.00 W/m2
01:20 62.7 °F 59.7 °F 30.10 in Calm   2.3 mph 90% 0.00 in 0.00 W/m2
01:24 62.6 °F 59.9 °F 30.10 in Calm     91% 0.00 in 0.00 W/m2
01:25 62.5 °F 59.8 °F 30.10 in Calm     91% 0.00 in 0.00 W/m2
01:29 62.4 °F 59.7 °F 30.10 in Calm   2.3 mph 91% 0.00 in 0.00 W/m2
01:30 62.3 °F 59.6 °F 30.10 in Calm   2.3 mph 91% 0.00 in 0.00 W/m2
01:34 62.2 °F 59.5 °F 30.10 in SE 2.3 mph 2.3 mph 91% 0.00 in 0.00 W/m2
01:35 62.2 °F 59.8 °F 30.10 in Calm   2.3 mph 92% 0.00 in 0.00 W/m2
01:39 62.3 °F 60.0 °F 30.10 in SE 1.1 mph 4.6 mph 92% 0.00 in 0.00 W/m2
01:40 62.4 °F 60.0 °F 30.11 in Calm   4.6 mph 92% 0.00 in 0.00 W/m2
01:44 62.3 °F 60.0 °F 30.11 in Calm   4.6 mph 92% 0.00 in 0.00 W/m2
01:45 62.3 °F 60.0 °F 30.11 in Calm   4.6 mph 92% 0.00 in 0.00 W/m2
01:49 62.3 °F 60.0 °F 30.11 in SE 2.3 mph 2.3 mph 92% 0.00 in 0.00 W/m2
01:50 62.3 °F 60.0 °F 30.11 in Calm   2.3 mph 92% 0.00 in 0.00 W/m2
01:54 62.2 °F 59.8 °F 30.11 in Calm   1.1 mph 92% 0.00 in 0.00 W/m2
01:55 62.2 °F 59.8 °F 30.11 in Calm   1.1 mph 92% 0.00 in 0.00 W/m2
01:59 62.3 °F 60.0 °F 30.11 in Calm   1.1 mph 92% 0.00 in 0.00 W/m2
02:00 62.3 °F 60.0 °F 30.11 in Calm   1.1 mph 92% 0.00 in 0.00 W/m2
02:04 62.4 °F 60.0 °F 30.11 in SE 2.3 mph 2.3 mph 92% 0.00 in 0.00 W/m2
02:05 62.4 °F 60.0 °F 30.11 in Calm   2.3 mph 92% 0.00 in 0.00 W/m2
02:09 62.5 °F 60.2 °F 30.11 in Calm   3.4 mph 92% 0.00 in 0.00 W/m2
02:10 62.5 °F 59.8 °F 30.11 in Calm   3.5 mph 91% 0.00 in 0.00 W/m2
02:15 62.5 °F 60.2 °F 30.11 in Calm     92% 0.00 in 0.00 W/m2
02:20 62.4 °F 60.0 °F 30.12 in Calm     92% 0.00 in 0.00 W/m2
02:25 62.3 °F 59.6 °F 30.12 in Calm     91% 0.00 in 0.00 W/m2
02:30 62.1 °F 59.8 °F 30.12 in Calm     92% 0.00 in 0.00 W/m2
02:35 62.0 °F 59.7 °F 30.12 in Calm   1.1 mph 92% 0.00 in 0.00 W/m2
02:40 62.0 °F 59.7 °F 30.12 in Calm     92% 0.00 in 0.00 W/m2
02:45 62.1 °F 60.1 °F 30.12 in Calm   3.4 mph 93% 0.00 in 0.00 W/m2
02:50 62.3 °F 60.0 °F 30.12 in Calm   1.1 mph 92% 0.00 in 0.00 W/m2
02:55 62.3 °F 60.0 °F 30.11 in Calm   2.3 mph 92% 0.00 in 0.00 W/m2
03:00 62.4 °F 60.0 °F 30.11 in SE 1.1 mph 3.4 mph 92% 0.00 in 0.00 W/m2
03:05 62.5 °F 59.8 °F 30.10 in SE 1.1 mph 3.4 mph 91% 0.00 in 0.00 W/m2
03:10 62.5 °F 59.8 °F 30.10 in Calm   2.3 mph 91% 0.00 in 0.00 W/m2
03:15 62.4 °F 59.7 °F 30.10 in SE 1.1 mph 2.3 mph 91% 0.00 in 0.00 W/m2
03:20 62.2 °F 59.8 °F 30.10 in Calm   3.4 mph 92% 0.00 in 0.00 W/m2
03:25 62.1 °F 59.8 °F 30.10 in Calm   5.8 mph 92% 0.00 in 0.00 W/m2
03:31 62.0 °F 59.7 °F 30.09 in Calm   5.8 mph 92% 0.00 in 0.00 W/m2
03:36 61.8 °F 59.5 °F 30.09 in ESE 1.1 mph 3.4 mph 92% 0.00 in 0.00 W/m2
03:41 61.6 °F 59.6 °F 30.09 in Calm   2.3 mph 93% 0.00 in 0.00 W/m2
03:46 61.6 °F 59.3 °F 30.09 in Calm   2.3 mph 92% 0.00 in 0.00 W/m2
03:51 61.5 °F 59.5 °F 30.09 in SE 2.3 mph 3.4 mph 93% 0.00 in 0.00 W/m2
03:56 61.4 °F 59.4 °F 30.10 in Calm   1.1 mph 93% 0.00 in 0.00 W/m2
04:01 61.4 °F 59.4 °F 30.09 in Calm   2.3 mph 93% 0.00 in 0.00 W/m2
04:06 61.4 °F 59.4 °F 30.10 in Calm   2.3 mph 93% 0.00 in 0.00 W/m2
04:11 61.4 °F 59.4 °F 30.09 in Calm     93% 0.00 in 0.00 W/m2
04:16 61.4 °F 59.4 °F 30.10 in Calm     93% 0.00 in 0.00 W/m2
04:21 61.3 °F 59.3 °F 30.10 in Calm     93% 0.00 in 0.00 W/m2
04:26 61.3 °F 59.3 °F 30.09 in Calm     93% 0.00 in 0.00 W/m2
04:31 61.3 °F 59.6 °F 30.09 in Calm     94% 0.00 in 0.00 W/m2
04:36 61.3 °F 59.6 °F 30.09 in Calm     94% 0.00 in 0.00 W/m2
04:41 61.4 °F 59.7 °F 30.09 in Calm     94% 0.00 in 0.00 W/m2
04:46 61.5 °F 59.8 °F 30.09 in Calm     94% 0.00 in 0.00 W/m2
04:51 61.6 °F 59.9 °F 30.09 in Calm   1.1 mph 94% 0.00 in 0.00 W/m2
04:56 61.7 °F 59.7 °F 30.09 in Calm   1.1 mph 93% 0.00 in 0.00 W/m2
05:01 61.9 °F 60.2 °F 30.09 in Calm   3.4 mph 94% 0.00 in 0.00 W/m2
05:06 62.0 °F 60.0 °F 30.09 in ESE 2.3 mph 4.6 mph 93% 0.00 in 0.00 W/m2
05:11 62.1 °F 60.1 °F 30.09 in Calm   3.4 mph 93% 0.00 in 0.00 W/m2
05:16 62.1 °F 60.1 °F 30.09 in ESE 1.1 mph 1.1 mph 93% 0.00 in 0.00 W/m2
05:21 62.0 °F 60.0 °F 30.09 in ESE 2.3 mph 2.3 mph 93% 0.00 in 0.00 W/m2
05:25 62.0 °F 60.0 °F 30.08 in ESE 1.1 mph 4.6 mph 93% 0.00 in 0.00 W/m2
05:30 62.0 °F 60.0 °F 30.08 in ESE 1.1 mph 3.4 mph 93% 0.00 in 0.00 W/m2
05:35 61.9 °F 59.9 °F 30.08 in ESE 2.3 mph 4.6 mph 93% 0.00 in 0.00 W/m2
05:40 61.8 °F 59.8 °F 30.08 in ESE 3.4 mph 3.4 mph 93% 0.00 in 0.00 W/m2
05:45 61.8 °F 59.8 °F 30.08 in ESE 1.1 mph 3.4 mph 93% 0.00 in 5.00 W/m2
05:51 61.6 °F 59.6 °F 30.08 in Calm   3.4 mph 93% 0.00 in 9.00 W/m2
05:56 61.6 °F 59.6 °F 30.08 in Calm   3.4 mph 93% 0.00 in 11.00 W/m2
06:01 61.6 °F 59.6 °F 30.08 in ESE 1.1 mph 2.3 mph 93% 0.00 in 12.00 W/m2
06:06 61.6 °F 59.6 °F 30.09 in ESE 3.4 mph 3.4 mph 93% 0.00 in 16.00 W/m2
06:11 61.7 °F 60.0 °F 30.09 in Calm   3.4 mph 94% 0.00 in 18.00 W/m2
06:16 62.0 °F 60.3 °F 30.09 in ESE 3.4 mph 6.9 mph 94% 0.00 in 19.00 W/m2
06:21 62.3 °F 60.2 °F 30.08 in Calm   3.4 mph 93% 0.00 in 23.00 W/m2
06:26 62.4 °F 60.3 °F 30.08 in ESE 2.3 mph 3.4 mph 93% 0.00 in 30.00 W/m2
06:31 62.5 °F 60.5 °F 30.08 in ESE 1.1 mph 4.6 mph 93% 0.00 in 35.00 W/m2
06:36 62.6 °F 60.5 °F 30.08 in ESE 1.1 mph 3.4 mph 93% 0.00 in 46.00 W/m2
06:41 62.8 °F 60.8 °F 30.08 in Calm   3.4 mph 93% 0.00 in 88.00 W/m2
06:46 63.2 °F 61.2 °F 30.08 in ESE 1.1 mph 4.6 mph 93% 0.00 in 84.00 W/m2
06:51 63.6 °F 61.2 °F 30.08 in SE 2.3 mph 5.8 mph 92% 0.00 in 104.00 W/m2
06:56 64.0 °F 61.6 °F 30.08 in ESE 4.6 mph 6.9 mph 92% 0.00 in 127.00 W/m2
07:01 64.4 °F 62.0 °F 30.08 in SE 3.4 mph 5.8 mph 92% 0.00 in 121.00 W/m2
07:06 64.7 °F 62.0 °F 30.08 in ESE 4.6 mph 5.8 mph 91% 0.00 in 169.00 W/m2
07:11 65.3 °F 62.6 °F 30.08 in ESE 3.4 mph 8.1 mph 91% 0.00 in 218.00 W/m2
07:16 65.9 °F 62.9 °F 30.08 in SE 1.1 mph 5.8 mph 90% 0.00 in 241.00 W/m2
07:21 66.8 °F 63.8 °F 30.08 in ESE 3.4 mph 5.8 mph 90% 0.00 in 251.00 W/m2
07:26 67.3 °F 63.6 °F 30.08 in Calm   8.1 mph 88% 0.00 in 234.00 W/m2
07:31 67.5 °F 63.8 °F 30.08 in SSE 5.8 mph 10.3 mph 88% 0.00 in 181.00 W/m2
07:36 67.7 °F 63.7 °F 30.08 in SE 2.3 mph 6.9 mph 87% 0.00 in 269.00 W/m2
07:41 68.1 °F 64.1 °F 30.08 in SSE 2.3 mph 5.8 mph 87% 0.00 in 278.00 W/m2
07:46 68.3 °F 64.0 °F 30.08 in SE 3.4 mph 9.2 mph 86% 0.00 in 285.00 W/m2
07:51 68.4 °F 64.1 °F 30.08 in SE 5.8 mph 8.1 mph 86% 0.00 in 220.00 W/m2
07:56 68.4 °F 64.1 °F 30.08 in SE 5.8 mph 10.3 mph 86% 0.00 in 311.00 W/m2
08:01 68.6 °F 63.9 °F 30.08 in SE 4.6 mph 4.6 mph 85% 0.00 in 200.00 W/m2
08:06 68.6 °F 64.2 °F 30.08 in South 1.1 mph 3.4 mph 86% 0.00 in 352.00 W/m2
08:11 69.2 °F 64.8 °F 30.08 in SE 2.3 mph 5.8 mph 86% 0.00 in 352.00 W/m2
08:16 69.6 °F 64.6 °F 30.08 in South 5.8 mph 8.1 mph 84% 0.00 in 353.00 W/m2
08:21 69.7 °F 64.7 °F 30.08 in South 2.3 mph 5.8 mph 84% 0.00 in 343.00 W/m2
08:26 70.1 °F 65.1 °F 30.08 in SSE 3.4 mph 5.8 mph 84% 0.00 in 345.00 W/m2
08:31 70.5 °F 65.4 °F 30.08 in SSE 3.4 mph 4.6 mph 84% 0.00 in 364.00 W/m2
08:36 70.4 °F 65.0 °F 30.08 in SE 4.6 mph 5.8 mph 83% 0.00 in 432.00 W/m2
08:41 70.4 °F 65.3 °F 30.08 in Calm   1.1 mph 84% 0.00 in 519.00 W/m2
08:47 71.1 °F 65.7 °F 30.07 in Calm   3.4 mph 83% 0.00 in 512.00 W/m2
08:52 72.0 °F 66.2 °F 30.07 in SSE 4.6 mph 8.1 mph 82% 0.00 in 499.00 W/m2
08:57 72.1 °F 66.3 °F 30.07 in Calm   2.3 mph 82% 0.00 in 531.00 W/m2
09:02 72.6 °F 66.4 °F 30.07 in SSE 4.6 mph 4.6 mph 81% 0.00 in 587.00 W/m2
09:07 73.1 °F 66.9 °F 30.07 in SSE 2.3 mph 5.8 mph 81% 0.00 in 522.00 W/m2
09:12 73.4 °F 66.9 °F 30.07 in SSE 9.2 mph 9.2 mph 80% 0.00 in 452.00 W/m2
09:17 73.4 °F 66.9 °F 30.07 in SE 2.3 mph 4.6 mph 80% 0.00 in 355.00 W/m2
09:22 73.1 °F 66.6 °F 30.07 in South 3.4 mph 5.8 mph 80% 0.00 in 290.00 W/m2
09:27 73.2 °F 67.0 °F 30.07 in SSE 4.6 mph 8.1 mph 81% 0.00 in 410.00 W/m2
09:32 74.1 °F 68.3 °F 30.07 in South 3.4 mph 4.6 mph 82% 0.00 in 533.00 W/m2
09:37 74.8 °F 67.9 °F 30.07 in SSE 2.3 mph 4.6 mph 79% 0.00 in 550.00 W/m2
09:42 75.0 °F 67.3 °F 30.07 in South 1.1 mph 4.6 mph 77% 0.00 in 559.00 W/m2
09:47 75.4 °F 68.4 °F 30.07 in SSE 5.8 mph 9.2 mph 79% 0.00 in 492.00 W/m2
09:52 75.5 °F 68.2 °F 30.07 in South 3.4 mph 5.8 mph 78% 0.00 in 374.00 W/m2
09:55 75.7 °F 68.7 °F 30.07 in SSE 5.8 mph 8.1 mph 79% 0.00 in 587.00 W/m2
10:00 75.9 °F 68.9 °F 30.07 in SSE 5.8 mph 6.9 mph 79% 0.00 in 587.00 W/m2
10:05 76.2 °F 68.5 °F 30.07 in SSE 9.2 mph 9.2 mph 77% 0.00 in 657.00 W/m2
10:10 76.2 °F 68.5 °F 30.06 in SE 4.6 mph 8.1 mph 77% 0.00 in 606.00 W/m2
10:15 76.3 °F 68.9 °F 30.06 in SSE 4.6 mph 8.1 mph 78% 0.00 in 487.00 W/m2
10:20 75.8 °F 68.5 °F 30.07 in SSE 3.4 mph 8.1 mph 78% 0.00 in 471.00 W/m2
10:25 76.2 °F 68.8 °F 30.06 in SSE 4.6 mph 9.2 mph 78% 0.00 in 636.00 W/m2
10:30 76.6 °F 68.9 °F 30.07 in South 8.1 mph 8.1 mph 77% 0.00 in 448.00 W/m2
10:35 76.8 °F 69.4 °F 30.06 in South 5.8 mph 5.8 mph 78% 0.00 in 390.00 W/m2
10:40 76.8 °F 69.4 °F 30.06 in SSE 3.4 mph 6.9 mph 78% 0.00 in 548.00 W/m2
10:45 77.2 °F 69.1 °F 30.06 in South 4.6 mph 8.1 mph 76% 0.00 in 691.00 W/m2
10:50 77.2 °F 69.1 °F 30.06 in SSE 2.3 mph 8.1 mph 76% 0.00 in 401.00 W/m2
10:55 77.2 °F 69.4 °F 30.06 in SE 3.4 mph 5.8 mph 77% 0.00 in 643.00 W/m2
11:00 77.5 °F 69.3 °F 30.07 in SSE 5.8 mph 6.9 mph 76% 0.00 in 633.00 W/m2
11:05 78.5 °F 70.3 °F 30.06 in SSW 1.1 mph 6.9 mph 76% 0.00 in 663.00 W/m2
11:10 79.7 °F 70.7 °F 30.06 in SSE 3.4 mph 8.1 mph 74% 0.00 in 812.00 W/m2
11:15 79.0 °F 70.0 °F 30.06 in SE 8.1 mph 8.1 mph 74% 0.00 in 526.00 W/m2
11:20 78.3 °F 70.1 °F 30.05 in SSE 3.4 mph 6.9 mph 76% 0.00 in 504.00 W/m2
11:25 79.2 °F 71.0 °F 30.06 in SSE 3.4 mph 5.8 mph 76% 0.00 in 480.00 W/m2
11:30 78.9 °F 70.7 °F 30.05 in SSE 4.6 mph 8.1 mph 76% 0.00 in 519.00 W/m2
11:36 78.9 °F 70.3 °F 30.05 in South 5.8 mph 6.9 mph 75% 0.00 in 497.00 W/m2
11:41 79.0 °F 70.4 °F 30.05 in SSE 4.6 mph 6.9 mph 75% 0.00 in 408.00 W/m2
11:46 78.9 °F 70.3 °F 30.04 in SSE 4.6 mph 10.3 mph 75% 0.00 in 418.00 W/m2
11:51 79.4 °F 71.6 °F 30.04 in Calm   5.8 mph 77% 0.00 in 563.00 W/m2
11:56 79.5 °F 71.3 °F 30.04 in ESE 3.4 mph 6.9 mph 76% 0.00 in 707.00 W/m2
12:01 80.2 °F 71.6 °F 30.03 in SE 4.6 mph 6.9 mph 75% 0.00 in 647.00 W/m2
12:06 80.2 °F 71.2 °F 30.03 in SSE 4.6 mph 8.1 mph 74% 0.00 in 650.00 W/m2
12:11 80.3 °F 71.3 °F 30.03 in SSE 3.4 mph 9.2 mph 74% 0.00 in 473.00 W/m2
12:16 80.3 °F 71.3 °F 30.04 in SSE 5.8 mph 9.2 mph 74% 0.00 in 661.00 W/m2
12:21 80.7 °F 72.0 °F 30.04 in SSE 5.8 mph 10.3 mph 75% 0.00 in 415.00 W/m2
12:26 80.1 °F 71.5 °F 30.04 in SSW 2.3 mph 9.2 mph 75% 0.00 in 448.00 W/m2
12:31 80.6 °F 71.9 °F 30.04 in SSE 3.4 mph 8.1 mph 75% 0.00 in 550.00 W/m2
12:36 81.1 °F 72.0 °F 30.04 in South 5.8 mph 9.2 mph 74% 0.00 in 705.00 W/m2
12:41 81.5 °F 72.8 °F 30.03 in South 5.8 mph 10.3 mph 75% 0.00 in 666.00 W/m2
12:46 82.8 °F 73.3 °F 30.03 in SSW 5.8 mph 5.8 mph 73% 0.00 in 970.00 W/m2
12:51 83.2 °F 73.7 °F 30.03 in SSE 6.9 mph 6.9 mph 73% 0.00 in 912.00 W/m2
12:56 83.1 °F 72.7 °F 30.03 in SSE 5.8 mph 6.9 mph 71% 0.00 in 861.00 W/m2
13:01 83.3 °F 73.8 °F 30.02 in SE 2.3 mph 2.3 mph 73% 0.00 in 840.00 W/m2
13:06 82.8 °F 72.9 °F 30.02 in SE 2.3 mph 3.4 mph 72% 0.00 in 403.00 W/m2
13:11 82.6 °F 73.5 °F 30.02 in SSE 2.3 mph 2.3 mph 74% 0.00 in 475.00 W/m2
13:16 82.2 °F 72.7 °F 30.02 in South 9.2 mph 11.5 mph 73% 0.00 in 452.00 W/m2
13:21 82.1 °F 73.8 °F 30.01 in Calm   1.1 mph 76% 0.00 in 606.00 W/m2
13:26 83.2 °F 74.8 °F 30.02 in South 2.3 mph 2.3 mph 76% 0.00 in 898.00 W/m2
13:31 83.0 °F 73.9 °F 30.02 in South 5.8 mph 5.8 mph 74% 0.00 in 853.00 W/m2
13:36 84.3 °F 74.3 °F 30.01 in SSE 3.4 mph 9.2 mph 72% 0.00 in 891.00 W/m2
13:41 84.1 °F 73.7 °F 30.02 in ESE 2.3 mph 4.6 mph 71% 0.00 in 682.00 W/m2
13:47 84.6 °F 75.0 °F 30.02 in ESE 4.6 mph 5.8 mph 73% 0.00 in 687.00 W/m2
13:52 84.2 °F 73.8 °F 30.02 in SSE 2.3 mph 4.6 mph 71% 0.00 in 650.00 W/m2
13:57 83.9 °F 74.3 °F 30.02 in SE 4.6 mph 4.6 mph 73% 0.00 in 668.00 W/m2
14:02 84.0 °F 74.0 °F 30.02 in South 4.6 mph 5.8 mph 72% 0.00 in 673.00 W/m2
14:07 83.8 °F 73.8 °F 30.01 in SSE 4.6 mph 6.9 mph 72% 0.00 in 694.00 W/m2
14:12 84.2 °F 75.0 °F 30.01 in South 5.8 mph 5.8 mph 74% 0.00 in 715.00 W/m2
14:17 84.3 °F 75.1 °F 30.01 in SSE 9.2 mph 9.2 mph 74% 0.00 in 554.00 W/m2
14:22 83.8 °F 73.4 °F 30.01 in SSE 4.6 mph 4.6 mph 71% 0.00 in 464.00 W/m2
14:27 83.4 °F 74.2 °F 30.01 in SE 5.8 mph 5.8 mph 74% 0.00 in 408.00 W/m2
14:32 83.5 °F 75.1 °F 30.01 in South 9.2 mph 9.2 mph 76% 0.00 in 403.00 W/m2
14:37 83.0 °F 73.5 °F 30.01 in SSE 6.9 mph 8.1 mph 73% 0.00 in 411.00 W/m2
14:42 82.6 °F 73.1 °F 30.00 in SSE 5.8 mph 5.8 mph 73% 0.00 in 427.00 W/m2
14:47 82.7 °F 74.0 °F 30.00 in South 6.9 mph 8.1 mph 75% 0.00 in 438.00 W/m2
14:52 82.8 °F 74.1 °F 30.00 in SSE 3.4 mph 4.6 mph 75% 0.00 in 432.00 W/m2
14:57 82.9 °F 74.6 °F 30.00 in South 4.6 mph 8.1 mph 76% 0.00 in 468.00 W/m2
15:02 83.1 °F 74.4 °F 30.00 in SSE 1.1 mph 6.9 mph 75% 0.00 in 431.00 W/m2
15:07 83.0 °F 74.3 °F 30.00 in SSE 4.6 mph 5.8 mph 75% 0.00 in 410.00 W/m2
15:12 82.8 °F 73.3 °F 30.00 in ESE 1.1 mph 8.1 mph 73% 0.00 in 374.00 W/m2
15:17 82.5 °F 73.8 °F 29.99 in SE 3.4 mph 6.9 mph 75% 0.00 in 362.00 W/m2
15:22 82.5 °F 73.8 °F 29.99 in SSW 4.6 mph 8.1 mph 75% 0.00 in 309.00 W/m2
15:27 82.6 °F 74.3 °F 30.00 in SSE 8.1 mph 8.1 mph 76% 0.00 in 295.00 W/m2
15:32 82.5 °F 73.8 °F 29.99 in South 3.4 mph 5.8 mph 75% 0.00 in 258.00 W/m2
15:37 82.5 °F 73.8 °F 29.99 in South 5.8 mph 9.2 mph 75% 0.00 in 258.00 W/m2
15:42 82.4 °F 73.7 °F 29.99 in SSE 4.6 mph 6.9 mph 75% 0.00 in 241.00 W/m2
15:47 82.2 °F 73.9 °F 29.99 in SSE 2.3 mph 4.6 mph 76% 0.00 in 234.00 W/m2
15:52 82.0 °F 73.3 °F 29.99 in SSE 1.1 mph 2.3 mph 75% 0.00 in 234.00 W/m2
15:57 81.9 °F 74.0 °F 29.99 in SSE 4.6 mph 8.1 mph 77% 0.00 in 214.00 W/m2
16:02 81.8 °F 73.9 °F 29.99 in SE 3.4 mph 3.4 mph 77% 0.00 in 214.00 W/m2
16:03 81.8 °F 73.5 °F 29.99 in SSE 2.3 mph 4.6 mph 76% 0.00 in 214.00 W/m2
16:08 81.6 °F 73.3 °F 29.99 in SSE 3.4 mph 9.2 mph 76% 0.00 in 192.00 W/m2
16:13 81.6 °F 73.7 °F 29.98 in SSE 2.3 mph 5.8 mph 77% 0.00 in 209.00 W/m2
16:19 81.6 °F 73.7 °F 29.98 in SSE 4.6 mph 6.9 mph 77% 0.00 in 218.00 W/m2
16:24 81.6 °F 73.7 °F 29.98 in Calm   6.9 mph 77% 0.00 in 218.00 W/m2
16:29 81.4 °F 73.9 °F 29.98 in SSE 2.3 mph 5.8 mph 78% 0.00 in 199.00 W/m2
16:34 81.4 °F 73.1 °F 29.98 in SSE 1.1 mph 4.6 mph 76% 0.00 in 190.00 W/m2
16:39 81.4 °F 73.9 °F 29.98 in Calm   3.4 mph 78% 0.00 in 185.00 W/m2
16:44 81.4 °F 73.5 °F 29.97 in ESE 3.4 mph 4.6 mph 77% 0.00 in 192.00 W/m2
16:49 81.3 °F 73.8 °F 29.98 in Calm   3.4 mph 78% 0.00 in 171.00 W/m2
16:54 81.4 °F 74.3 °F 29.97 in SE 2.3 mph 4.6 mph 79% 0.00 in 169.00 W/m2
16:59 81.3 °F 74.2 °F 29.97 in ESE 2.3 mph 4.6 mph 79% 0.00 in 167.00 W/m2
17:04 81.3 °F 74.2 °F 29.97 in Calm   3.4 mph 79% 0.00 in 151.00 W/m2
17:09 81.1 °F 73.6 °F 29.97 in ESE 3.4 mph 4.6 mph 78% 0.00 in 151.00 W/m2
17:14 81.1 °F 73.6 °F 29.97 in SE 4.6 mph 5.8 mph 78% 0.00 in 169.00 W/m2
17:19 81.2 °F 74.1 °F 29.96 in Calm   3.4 mph 79% 0.00 in 178.00 W/m2
17:24 81.1 °F 74.0 °F 29.96 in SE 2.3 mph 3.4 mph 79% 0.00 in 165.00 W/m2
17:29 81.0 °F 74.2 °F 29.96 in ESE 3.4 mph 6.9 mph 80% 0.00 in 155.00 W/m2
17:34 81.1 °F 74.3 °F 29.96 in Calm   2.3 mph 80% 0.00 in 206.00 W/m2
17:39 81.3 °F 74.5 °F 29.95 in SE 3.4 mph 3.4 mph 80% 0.00 in 297.00 W/m2
17:44 81.7 °F 74.9 °F 29.95 in Calm   6.9 mph 80% 0.00 in 209.00 W/m2
17:49 81.5 °F 74.7 °F 29.95 in ESE 1.1 mph 8.1 mph 80% 0.00 in 155.00 W/m2
17:54 81.0 °F 74.2 °F 29.95 in ESE 2.3 mph 5.8 mph 80% 0.00 in 127.00 W/m2
17:59 80.9 °F 74.2 °F 29.95 in Calm   2.3 mph 80% 0.00 in 127.00 W/m2
18:04 80.8 °F 74.4 °F 29.95 in SE 1.1 mph 3.4 mph 81% 0.00 in 123.00 W/m2
18:09 80.7 °F 74.3 °F 29.94 in ESE 1.1 mph 5.8 mph 81% 0.00 in 105.00 W/m2
18:14 80.5 °F 74.5 °F 29.94 in ESE 3.4 mph 5.8 mph 82% 0.00 in 84.00 W/m2
18:19 80.2 °F 74.6 °F 29.94 in Calm   8.1 mph 83% 0.00 in 70.00 W/m2
18:24 79.9 °F 73.9 °F 29.94 in ESE 2.3 mph 5.8 mph 82% 0.00 in 65.00 W/m2
18:30 79.7 °F 73.7 °F 29.94 in ESE 2.3 mph 2.3 mph 82% 0.00 in 62.00 W/m2
18:35 79.6 °F 74.0 °F 29.94 in Calm   3.4 mph 83% 0.00 in 58.00 W/m2
18:40 79.4 °F 74.2 °F 29.94 in ESE 3.4 mph 3.4 mph 84% 0.00 in 49.00 W/m2
18:45 79.1 °F 74.2 °F 29.93 in ESE 2.3 mph 3.4 mph 85% 0.00 in 39.00 W/m2
18:50 78.9 °F 74.0 °F 29.93 in ESE 3.4 mph 5.8 mph 85% 0.00 in 39.00 W/m2
18:55 78.8 °F 73.9 °F 29.93 in ESE 1.1 mph 4.6 mph 85% 0.00 in 42.00 W/m2
19:00 78.7 °F 74.2 °F 29.93 in Calm   3.4 mph 86% 0.00 in 46.00 W/m2
19:05 78.5 °F 74.0 °F 29.92 in Calm   5.8 mph 86% 0.00 in 47.00 W/m2
19:10 78.4 °F 73.9 °F 29.92 in ESE 4.6 mph 5.8 mph 86% 0.00 in 42.00 W/m2
19:11 78.3 °F 73.8 °F 29.92 in Calm     86% 0.00 in 42.00 W/m2
19:16 78.2 °F 74.0 °F 29.93 in ESE 1.1 mph 1.1 mph 87% 0.00 in 39.00 W/m2
19:21 78.1 °F 73.6 °F 29.93 in Calm     86% 0.00 in 32.00 W/m2
19:26 78.0 °F 73.8 °F 29.93 in ESE 2.3 mph 3.4 mph 87% 0.00 in 21.00 W/m2
19:31 77.8 °F 73.6 °F 29.94 in Calm   3.4 mph 87% 0.00 in 12.00 W/m2
19:36 77.8 °F 73.6 °F 29.94 in ESE 1.1 mph 1.1 mph 87% 0.00 in 9.00 W/m2
19:41 77.7 °F 73.5 °F 29.95 in Calm     87% 0.00 in 7.00 W/m2
19:46 77.5 °F 73.3 °F 29.95 in Calm     87% 0.00 in 7.00 W/m2
19:51 77.5 °F 73.3 °F 29.95 in Calm     87% 0.00 in 5.00 W/m2
19:56 77.3 °F 73.5 °F 29.95 in Calm     88% 0.00 in 0.00 W/m2
20:01 77.1 °F 73.3 °F 29.95 in Calm     88% 0.00 in 0.00 W/m2
20:06 77.1 °F 73.3 °F 29.95 in Calm     88% 0.00 in 0.00 W/m2
20:11 77.0 °F 73.2 °F 29.94 in Calm     88% 0.00 in 0.00 W/m2
20:16 76.9 °F 73.1 °F 29.95 in Calm     88% 0.00 in 0.00 W/m2
20:21 76.8 °F 73.0 °F 29.95 in Calm     88% 0.00 in 0.00 W/m2
20:26 76.8 °F 73.0 °F 29.95 in Calm     88% 0.00 in 0.00 W/m2
20:31 76.6 °F 72.8 °F 29.95 in Calm     88% 0.00 in 0.00 W/m2
20:36 76.5 °F 73.0 °F 29.95 in ESE 2.3 mph 3.4 mph 89% 0.00 in 0.00 W/m2
20:41 76.5 °F 73.0 °F 29.95 in Calm     89% 0.00 in 0.00 W/m2
20:43 76.6 °F 73.1 °F 29.95 in ESE 1.1 mph 3.4 mph 89% 0.00 in 0.00 W/m2
20:48 76.6 °F 73.1 °F 29.95 in Calm   1.1 mph 89% 0.00 in 0.00 W/m2
20:53 76.6 °F 73.1 °F 29.94 in Calm   1.1 mph 89% 0.00 in 0.00 W/m2
20:58 76.5 °F 73.0 °F 29.95 in ENE 1.1 mph 2.3 mph 89% 0.00 in 0.00 W/m2
21:03 76.3 °F 72.8 °F 29.95 in Calm   2.3 mph 89% 0.00 in 0.00 W/m2
21:08 76.2 °F 72.7 °F 29.95 in Calm   4.6 mph 89% 0.00 in 0.00 W/m2
21:13 76.2 °F 72.7 °F 29.95 in ENE 1.1 mph 1.1 mph 89% 0.00 in 0.00 W/m2
21:18 76.1 °F 72.6 °F 29.95 in ENE 3.4 mph 3.4 mph 89% 0.00 in 0.00 W/m2
21:23 76.0 °F 72.9 °F 29.95 in Calm   2.3 mph 90% 0.00 in 0.00 W/m2
21:28 76.0 °F 72.9 °F 29.94 in Calm   3.4 mph 90% 0.00 in 0.00 W/m2
21:33 75.7 °F 72.6 °F 29.94 in ENE 3.4 mph 3.4 mph 90% 0.00 in 0.00 W/m2
peotoneweather.com
Compliments of Weather Underground - 1.5 mb